Antigo, WI

1:55 PM CST on February 08, 2016 (GMT -0600)
Langlade County

Weather History for KAIG - June, 2013

Change the Weather History Date:

Saturday, June 29, 2013

  Actual Average Record
Temperature  
Mean Temperature 62 °F -  
Max Temperature 70 °F 77 °F 94 °F (1966)
Min Temperature 55 °F 53 °F 39 °F (2007)
Degree Days  
Heating Degree Days 2    
Growing Degree Days 12 (Base 50)    
Moisture  
Dew Point 55 °F    
Average Humidity 80    
Maximum Humidity 99    
Minimum Humidity 56    
Precipitation  
Precipitation 0.18 in - - ()
Sea Level Pressure  
Sea Level Pressure 29.81 in    
Wind  
Wind Speed 9 mph (NNE)    
Max Wind Speed 17 mph    
Max Gust Speed 23 mph    
Visibility 10 miles    
Events Rain    
Averages and records for this station are not official NWS values.
T = Trace of Precipitation, MM = Missing Value Source: NWS Daily Summary

Daily Weather History Graph

Daily Weather History Graph

Search for Another Location

Airport or City:

Trip Planner

Search our weather history database for the weather conditions in past years. The results will help you decide how hot, cold, wet, or windy it might be!

Date:

Astronomy

Jun. 29, 2013 Rise Set
Actual Time 5:12 AM CDT 8:47 PM CDT
Civil Twilight 4:34 AM CDT 9:25 PM CDT
Nautical Twilight 3:44 AM CDT 10:14 PM CDT
Astronomical Twilight 2:39 AM CDT 11:20 PM CDT
Moon No Moon Rise 12:44 PM CDT (6/29)
Length of Visible Light 16h 50m
Length of Day
15h 35m
Waning Gibbous, 55% of the Moon is Illuminated
Jun 29
Waning Gibbous
Jun 29
Last Quarter
Jul 8
New
Jul 15
First Quarter
Jul 22
Full

Hourly Weather History & Observations

Time (CDT) Temp. Dew Point Humidity Pressure Visibility Wind Dir Wind Speed Gust Speed Precip Events Conditions
12:15 AM 59.9 °F 59.0 °F 97% 29.73 in 10.0 mi NNE 5.8 mph - N/A   Mostly Cloudy
12:35 AM 59.5 °F 58.8 °F 97% 29.72 in 10.0 mi North 4.6 mph - N/A   Overcast
12:55 AM 59.4 °F 58.6 °F 97% 29.72 in 10.0 mi North 4.6 mph - N/A   Overcast
1:15 AM 59.9 °F 59.0 °F 97% 29.72 in 10.0 mi NNE 9.2 mph - N/A   Overcast
1:35 AM 60.1 °F 58.5 °F 94% 29.72 in 10.0 mi NE 10.4 mph - N/A   Overcast
1:55 AM 59.5 °F 57.9 °F 94% 29.72 in 10.0 mi North 9.2 mph - N/A   Mostly Cloudy
2:15 AM 58.6 °F 57.7 °F 97% 29.72 in 7.0 mi North 4.6 mph - N/A   Scattered Clouds
2:35 AM 58.1 °F 57.2 °F 97% 29.72 in 7.0 mi Calm Calm - N/A   Scattered Clouds
2:55 AM 58.1 °F 57.4 °F 97% 29.72 in 10.0 mi North 3.5 mph - N/A   Mostly Cloudy
3:15 AM 59.0 °F 58.3 °F 97% 29.72 in 10.0 mi North 4.6 mph - N/A   Overcast
3:35 AM 59.0 °F 58.1 °F 97% 29.72 in 10.0 mi North 9.2 mph - N/A   Overcast
3:55 AM 59.2 °F 58.1 °F 96% 29.72 in 10.0 mi North 9.2 mph - N/A   Overcast
4:15 AM 58.6 °F 57.4 °F 96% 29.72 in 10.0 mi North 9.2 mph - N/A   Mostly Cloudy
4:35 AM 59.0 °F 57.6 °F 95% 29.73 in 10.0 mi North 10.4 mph - N/A   Mostly Cloudy
4:55 AM 59.2 °F 57.6 °F 94% 29.73 in 10.0 mi NNE 9.2 mph - N/A   Overcast
5:15 AM 59.0 °F 57.6 °F 95% 29.74 in 7.0 mi NNE 6.9 mph - N/A   Overcast
5:35 AM 58.8 °F 57.2 °F 94% 29.74 in 10.0 mi NNE 10.4 mph - N/A   Overcast
5:55 AM 58.5 °F 57.2 °F 96% 29.75 in 10.0 mi NNE 6.9 mph - N/A   Overcast
6:15 AM 58.5 °F 57.2 °F 96% 29.75 in 10.0 mi NNE 10.4 mph - N/A   Overcast
6:35 AM 58.3 °F 57.2 °F 96% 29.75 in 10.0 mi NNE 11.5 mph - N/A   Overcast
6:55 AM 58.1 °F 57.0 °F 96% 29.76 in 7.0 mi NNE 9.2 mph - N/A   Light Drizzle
7:15 AM 57.6 °F 56.7 °F 97% 29.76 in 7.0 mi NNE 9.2 mph - N/A Rain Light Rain
7:35 AM 57.4 °F 57.0 °F 99% 29.76 in 4.0 mi NE 8.1 mph - 0.05 in Rain Rain
7:55 AM 57.2 °F 56.1 °F 96% 29.78 in 7.0 mi NE 12.7 mph 19.6 mph 0.10 in Rain Light Rain
8:15 AM 57.2 °F 56.3 °F 97% 29.78 in 5.0 mi NNE 9.2 mph - 0.03 in Rain Rain
8:35 AM 57.4 °F 56.5 °F 97% 29.79 in 5.0 mi NE 9.2 mph - 0.05 in Rain Rain
8:55 AM 57.6 °F 56.8 °F 97% 29.79 in 7.0 mi NE 9.2 mph - 0.07 in   Drizzle
9:15 AM 58.6 °F 57.4 °F 96% 29.79 in 10.0 mi NNE 8.1 mph - N/A   Light Drizzle
9:35 AM 59.2 °F 57.2 °F 93% 29.79 in 10.0 mi NNE 9.2 mph - N/A   Overcast
9:55 AM 60.3 °F 57.7 °F 91% 29.79 in 10.0 mi NNE 8.1 mph - N/A   Overcast
10:15 AM 61.3 °F 58.3 °F 90% 29.79 in 10.0 mi NNE 10.4 mph - N/A   Overcast
10:35 AM 61.9 °F 57.2 °F 85% 29.80 in 10.0 mi NNE 11.5 mph 19.6 mph 0.01 in   Overcast
10:55 AM 63.5 °F 58.1 °F 83% 29.80 in 10.0 mi NNE 13.8 mph - 0.01 in   Overcast
11:15 AM 64.4 °F 56.8 °F 76% 29.81 in 10.0 mi NNE 16.1 mph 23.0 mph N/A   Overcast
11:35 AM 64.9 °F 57.2 °F 76% 29.81 in 10.0 mi North 13.8 mph - N/A   Overcast
11:55 AM 66.2 °F 57.4 °F 73% 29.81 in 10.0 mi North 13.8 mph - N/A   Overcast
12:15 PM 67.5 °F 58.8 °F 74% 29.81 in 10.0 mi North 12.7 mph - N/A   Mostly Cloudy
12:35 PM 66.0 °F 58.5 °F 77% 29.82 in 10.0 mi NNE 12.7 mph 17.3 mph N/A   Overcast
12:55 PM 64.4 °F 57.4 °F 78% 29.82 in 10.0 mi North 12.7 mph - N/A   Overcast
1:15 PM 66.6 °F 58.6 °F 76% 29.82 in 10.0 mi North 12.7 mph 16.1 mph N/A   Overcast
1:35 PM 67.6 °F 59.5 °F 75% 29.82 in 10.0 mi North 13.8 mph - N/A   Mostly Cloudy
1:55 PM 66.4 °F 58.8 °F 77% 29.82 in 10.0 mi North 13.8 mph 19.6 mph N/A   Scattered Clouds
2:15 PM 68.4 °F 57.6 °F 68% 29.82 in 10.0 mi NNE 17.3 mph - N/A   Mostly Cloudy
2:35 PM 68.5 °F 56.5 °F 65% 29.83 in 10.0 mi NNE 15.0 mph - N/A   Scattered Clouds
2:55 PM 69.1 °F 57.0 °F 65% 29.82 in 10.0 mi North 12.7 mph - N/A   Mostly Cloudy
3:35 PM 67.8 °F 55.9 °F 66% 29.83 in 10.0 mi North 10.4 mph - N/A   Overcast
3:55 PM 70.2 °F 55.2 °F 59% 29.83 in 10.0 mi NNE 15.0 mph 19.6 mph N/A   Mostly Cloudy
4:15 PM 69.6 °F 54.7 °F 59% 29.84 in 10.0 mi NNE 15.0 mph - N/A   Mostly Cloudy
4:35 PM 68.4 °F 53.6 °F 59% 29.84 in 10.0 mi NNE 13.8 mph 23.0 mph N/A   Scattered Clouds
4:55 PM 67.6 °F 53.1 °F 59% 29.84 in 10.0 mi NNE 17.3 mph - N/A   Scattered Clouds
5:15 PM 68.0 °F 52.5 °F 58% 29.85 in 10.0 mi North 13.8 mph 21.9 mph N/A   Mostly Cloudy
5:35 PM 67.8 °F 51.8 °F 56% 29.85 in 10.0 mi NNE 16.1 mph 21.9 mph N/A   Overcast
5:55 PM 67.3 °F 52.2 °F 58% 29.85 in 10.0 mi North 11.5 mph 19.6 mph N/A   Mostly Cloudy
6:15 PM 66.4 °F 52.7 °F 61% 29.86 in 10.0 mi NNE 11.5 mph - N/A   Mostly Cloudy
6:35 PM 66.2 °F 52.0 °F 60% 29.86 in 10.0 mi NNE 11.5 mph - N/A   Mostly Cloudy
6:55 PM 65.5 °F 52.5 °F 63% 29.87 in 10.0 mi North 10.4 mph - N/A   Overcast
7:15 PM 64.9 °F 52.7 °F 64% 29.88 in 10.0 mi North 9.2 mph - N/A   Overcast
7:35 PM 64.4 °F 52.3 °F 65% 29.88 in 10.0 mi North 11.5 mph - N/A   Scattered Clouds
7:55 PM 63.1 °F 53.4 °F 71% 29.88 in 10.0 mi North 8.1 mph - N/A   Scattered Clouds
8:15 PM 63.5 °F 50.9 °F 63% 29.89 in 10.0 mi North 16.1 mph - N/A   Scattered Clouds
8:35 PM 63.0 °F 48.4 °F 59% 29.90 in 10.0 mi North 17.3 mph 23.0 mph N/A   Mostly Cloudy
8:55 PM 61.7 °F 47.7 °F 60% 29.90 in 10.0 mi NNE 12.7 mph - N/A   Mostly Cloudy
9:15 PM 61.0 °F 46.2 °F 58% 29.91 in 10.0 mi NNE 10.4 mph - N/A   Scattered Clouds
9:35 PM 59.7 °F 47.3 °F 63% 29.92 in 10.0 mi NNE 8.1 mph - N/A   Mostly Cloudy
10:15 PM 58.6 °F 46.2 °F 63% 29.93 in 10.0 mi North 10.4 mph - N/A   Mostly Cloudy
10:35 PM 57.9 °F 45.5 °F 63% 29.93 in 10.0 mi North 10.4 mph - N/A   Scattered Clouds
10:55 PM 57.2 °F 45.7 °F 65% 29.93 in 10.0 mi North 11.5 mph 16.1 mph N/A   Clear
11:15 PM 56.5 °F 46.4 °F 69% 29.94 in 10.0 mi North 11.5 mph - N/A   Clear
11:35 PM 55.9 °F 46.9 °F 72% 29.94 in 10.0 mi North 9.2 mph - N/A   Clear
11:55 PM 55.0 °F 48.6 °F 79% 29.94 in 10.0 mi NNE 9.2 mph - N/A   Clear